Location: Knowlton
(51.2333°N, 1.2667°E)
Time: 20:43:53
(UTC+00:00)

NOSS 7 (H) - Visible Passes

Search period start: 23 July 2021 00:00
Search period end: 02 August 2021 00:00
Orbit: 366 x 1786 km, 63.3° (Epoch: 23 July)

Date Brightness Start Highest point End Pass type
(mag) Time Alt. Az. Time Alt. Az. Time Alt. Az.
23 Jul 8.1 01:06:46 10° N 01:07:33 11° NNE 01:08:21 10° NNE visible
23 Jul 6.7 02:55:22 10° NNW 02:58:20 32° NE 03:02:05 10° ESE visible
23 Jul 7.2 22:20:16 10° WNW 22:22:30 19° NNW 22:24:42 10° NNE visible
24 Jul 7.5 02:02:23 10° NNW 02:04:49 20° NNE 02:07:39 10° ENE visible
24 Jul 6.1 21:26:04 10° WSW 21:28:59 33° NW 21:31:40 10° NNE visible
24 Jul 8.1 23:19:20 10° NNW 23:19:47 10° N 23:20:14 10° N visible
25 Jul 7.9 01:09:29 10° NNW 01:11:08 13° NNE 01:12:55 10° NE visible
25 Jul 5.5 02:58:20 10° NW 03:01:35 54° NE 03:05:54 10° ESE visible
25 Jul 4.3 20:32:19 10° SW 20:35:36 76° NW 20:38:31 10° NE visible
25 Jul 7.7 22:24:24 10° NW 22:25:58 13° NNW 22:27:32 10° NNE visible
26 Jul 8.1 00:16:47 10° N 00:17:19 10° N 00:17:51 10° NNE visible
26 Jul 6.7 02:05:16 10° NNW 02:08:10 29° NE 02:11:45 10° E visible
26 Jul 7.1 21:29:55 10° W 21:32:17 21° NNW 21:34:35 10° NNE visible
27 Jul 7.5 01:12:18 10° NNW 01:14:36 18° NNE 01:17:15 10° ENE visible
27 Jul 4.7 03:01:21 10° NW 03:04:46 85° SW 03:09:23 10° SE visible
27 Jul 5.8 20:35:47 10° WSW 20:38:47 38° NW 20:41:32 10° NNE visible
27 Jul 7.9 22:28:48 10° NNW 22:29:31 11° NNW 22:30:14 10° N visible
28 Jul 7.8 00:19:24 10° N 00:20:52 13° NNE 00:22:27 10° NE visible
28 Jul 5.7 02:08:11 10° NW 02:11:24 48° NE 02:15:35 10° ESE visible
28 Jul 7.5 21:33:58 10° WNW 21:35:42 14° NNW 21:37:25 10° NNE visible
29 Jul 6.8 01:15:08 10° NNW 01:17:56 26° NE 01:21:22 10° E visible
29 Jul 5.0 03:04:30 10° NW 03:07:54 47° SW 03:12:28 10° SSE visible
29 Jul 7.0 20:39:31 10° W 20:42:02 23° NNW 20:44:27 10° NNE visible
30 Jul 7.4 00:22:09 10° NNW 00:24:19 17° NNE 00:26:47 10° ENE visible
30 Jul 4.7 02:11:10 10° NW 02:14:33 85° NE 02:19:07 10° SE visible
30 Jul 7.6 21:38:15 10° NNW 21:39:11 11° NNW 21:40:08 10° N visible
30 Jul 7.7 23:29:16 10° N 23:30:33 12° NNE 23:31:55 10° NE visible
31 Jul 5.8 01:18:00 10° NW 01:21:09 42° NE 01:25:13 10° ESE visible
31 Jul 5.8 03:07:49 10° WNW 03:11:00 27° SW 03:15:06 10° S visible
31 Jul 7.3 20:43:29 10° WNW 20:45:23 15° NNW 20:47:15 10° NNE visible
01 Aug 6.8 00:24:57 10° NNW 00:27:39 24° NNE 00:30:54 10° E visible
01 Aug 4.9 02:14:14 10° NW 02:17:39 54° SW 02:22:16 10° SSE visible
01 Aug 7.4 23:31:58 10° NNW 23:33:59 16° NNE 23:36:15 10° ENE visible
